Location: Degersen
(52.2871°N, 9.5716°E)
Time: 22:35:11
(UTC+00:00)

Meteor 1-24 Rocket - Visible Passes

Search period start: 18 April 2026 00:00
Search period end: 28 April 2026 00:00
Orbit: 788 x 926 km, 81.2° (Epoch: 18 April)

Date Brightness Start Highest point End Pass type
(mag) Time Alt. Az. Time Alt. Az. Time Alt. Az.
18 Apr 6.6 19:41:36 10° NW 19:44:32 15° W 19:47:31 10° WSW visible
19 Apr 6.6 19:31:21 10° NW 19:34:28 15° W 19:37:38 10° WSW visible
20 Apr 6.6 19:21:07 10° NW 19:24:23 16° W 19:27:43 10° WSW visible
21 Apr 6.6 19:10:53 10° NW 19:14:19 17° W 19:17:48 10° WSW visible
22 Apr 6.6 19:00:40 10° NW 19:04:15 18° W 19:07:54 10° WSW visible
